User: anonymous   Login
Location: Pine Mountain Observatory
(43.7910°N, 120.9377°W)
Time: 08:59:00
(UTC-08:00)
Language:

Cosmos 1867 - Orbit

View from above orbital plane
View from above orbital plane
View from above satellite
View from above satellite

Ground track
Ground track

The orbit data is extracted from the following two-line orbital elements,

1 18187U 87060A   17349.29529511 -.00000115 +00000-0 -54579-5 0  9998
2 18187 065.0100 081.9577 0014267 277.3380 082.6083 14.31090986589680
Epoch (UTC): 15 December 2017 07:05:13
Eccentricity: 0.0014267
inclination: 65.0100°
perigee height: 778 km
apogee height: 798 km
right ascension of ascending node: 81.9577°
argument of perigee: 277.3380°
revolutions per day: 14.31090986
mean anomaly at epoch: 82.6083°
orbit number at epoch: 58968

The dashed part of the orbit path shows where the satellite is in the earth's shadow,  

DLR